Time,TemperatureF,DewpointF,PressureIn,WindDirection,WindDirectionDegrees,WindSpeedMPH,WindSpeedGustMPH,Humidity,HourlyPrecipIn,Conditions,Clouds,dailyrainin,SoftwareType,DateUTC
2013-03-10 00:00:00,43.2,34.7,29.82,SE,135,2.9,4.6,72,0.00,CLR,SKC,0.00,WeatherDisplay:10.37,2013-03-10 05:00:00,
2013-03-10 00:05:00,43.2,34.7,29.82,SE,135,2.9,0.0,72,0.00,CLR,SKC,0.00,WeatherDisplay:10.37,2013-03-10 05:05:00,
2013-03-10 00:10:00,43.2,34.7,29.82,SE,135,0.2,2.3,72,0.00,CLR,SKC,0.00,WeatherDisplay:10.37,2013-03-10 05:10:00,
2013-03-10 00:15:00,43.0,34.6,29.81,SE,135,0.9,2.3,72,0.00,CLR,SKC,0.00,WeatherDisplay:10.37,2013-03-10 05:15:00,
2013-03-10 00:20:00,43.0,34.6,29.81,SE,135,1.7,2.7,72,0.00,CLR,SKC,0.00,WeatherDisplay:10.37,2013-03-10 05:20:00,
2013-03-10 00:25:00,43.0,34.6,29.81,ESE,112,2.8,2.8,72,0.00,CLR,SKC,0.00,WeatherDisplay:10.37,2013-03-10 05:25:00,
2013-03-10 00:30:00,42.6,34.2,29.80,SE,135,4.5,5.6,72,0.00,CLR,SKC,0.00,WeatherDisplay:10.37,2013-03-10 05:30:00,
2013-03-10 00:35:00,42.6,34.2,29.80,ESE,112,3.0,3.0,72,0.00,CLR,SKC,0.00,WeatherDisplay:10.37,2013-03-10 05:35:00,
2013-03-10 00:40:00,43.0,34.6,29.80,SE,135,1.2,3.5,72,0.00,CLR,SKC,0.00,WeatherDisplay:10.37,2013-03-10 05:40:00,
2013-03-10 00:45:00,43.0,34.6,29.80,SE,135,1.8,5.8,72,0.00,CLR,SKC,0.00,WeatherDisplay:10.37,2013-03-10 05:45:00,
2013-03-10 00:50:00,43.0,34.6,29.80,SE,135,0.0,2.3,72,0.00,CLR,SKC,0.00,WeatherDisplay:10.37,2013-03-10 05:50:00,
2013-03-10 00:55:00,43.2,34.7,29.80,SE,135,0.6,3.5,72,0.00,CLR,SKC,0.00,WeatherDisplay:10.37,2013-03-10 05:55:00,
2013-03-10 01:00:00,43.2,34.7,29.80,SE,135,3.2,5.8,72,0.00,CLR,SKC,0.00,WeatherDisplay:10.37,2013-03-10 06:00:00,
2013-03-10 01:05:00,43.3,34.9,29.79,SE,135,2.5,6.9,72,0.00,CLR,SKC,0.00,WeatherDisplay:10.37,2013-03-10 06:05:00,
2013-03-10 01:10:00,43.5,35.1,29.79,SE,135,2.5,5.8,72,0.00,CLR,SKC,0.00,WeatherDisplay:10.37,2013-03-10 06:10:00,
2013-03-10 01:15:00,43.5,34.7,29.79,SE,135,1.4,3.5,71,0.00,CLR,SKC,0.00,WeatherDisplay:10.37,2013-03-10 06:15:00,
2013-03-10 01:20:00,43.3,34.6,29.80,ESE,112,0.7,3.5,71,0.00,CLR,SKC,0.00,WeatherDisplay:10.37,2013-03-10 06:20:00,
2013-03-10 01:25:00,43.3,34.6,29.79,SE,135,1.9,2.3,71,0.00,CLR,SKC,0.00,WeatherDisplay:10.37,2013-03-10 06:25:00,
2013-03-10 01:30:00,43.3,34.6,29.79,SE,135,0.9,2.3,71,0.00,CLR,SKC,0.00,WeatherDisplay:10.37,2013-03-10 06:30:00,
2013-03-10 01:35:00,43.2,34.4,29.79,SE,135,1.4,4.6,71,0.00,CLR,SKC,0.00,WeatherDisplay:10.37,2013-03-10 06:35:00,
2013-03-10 01:40:00,43.2,34.7,29.79,ESE,112,0.0,0.0,72,0.00,CLR,SKC,0.00,WeatherDisplay:10.37,2013-03-10 06:40:00,
2013-03-10 01:45:00,43.2,34.7,29.79,ESE,112,0.1,2.3,72,0.00,CLR,SKC,0.00,WeatherDisplay:10.37,2013-03-10 06:45:00,
2013-03-10 01:50:00,43.3,34.6,29.79,ESE,112,1.3,4.6,71,0.00,CLR,SKC,0.00,WeatherDisplay:10.37,2013-03-10 06:50:00,
2013-03-10 01:55:00,43.3,34.6,29.78,ESE,112,0.4,2.3,71,0.00,CLR,SKC,0.00,WeatherDisplay:10.37,2013-03-10 06:55:00,
2013-03-10 03:00:00,43.2,34.4,29.79,ENE,68,0.1,4.0,71,0.00,CLR,SKC,0.00,WeatherDisplay:10.37,2013-03-10 07:00:00,
2013-03-10 03:05:00,43.2,34.7,29.78,East,90,0.6,1.1,72,0.00,CLR,SKC,0.00,WeatherDisplay:10.37,2013-03-10 07:05:00,
2013-03-10 03:10:00,43.2,34.7,29.78,ESE,112,1.7,2.3,72,0.00,CLR,SKC,0.00,WeatherDisplay:10.37,2013-03-10 07:10:00,
2013-03-10 03:15:00,43.2,34.7,29.78,ESE,112,0.8,3.5,72,0.00,CLR,SKC,0.00,WeatherDisplay:10.37,2013-03-10 07:15:00,
2013-03-10 03:20:00,43.3,34.9,29.77,ESE,112,1.2,1.2,72,0.00,CLR,SKC,0.00,WeatherDisplay:10.37,2013-03-10 07:20:00,
2013-03-10 03:25:00,43.3,34.9,29.78,ESE,112,1.3,3.5,72,0.00,CLR,SKC,0.00,WeatherDisplay:10.37,2013-03-10 07:25:00,
2013-03-10 03:30:00,43.5,35.1,29.77,ESE,112,2.2,2.5,72,0.00,CLR,SKC,0.00,WeatherDisplay:10.37,2013-03-10 07:30:00,
2013-03-10 03:35:00,43.5,35.1,29.77,ESE,112,0.5,1.1,72,0.00,CLR,SKC,0.00,WeatherDisplay:10.37,2013-03-10 07:35:00,
2013-03-10 03:40:00,43.5,35.1,29.77,ESE,112,1.0,3.5,72,0.00,CLR,SKC,0.00,WeatherDisplay:10.37,2013-03-10 07:40:00,
2013-03-10 03:45:00,43.7,35.3,29.77,SE,135,1.8,3.5,72,0.00,CLR,SKC,0.00,WeatherDisplay:10.37,2013-03-10 07:45:00,
2013-03-10 03:50:00,43.7,35.3,29.77,ESE,112,1.8,2.3,72,0.00,CLR,SKC,0.00,WeatherDisplay:10.37,2013-03-10 07:50:00,
2013-03-10 03:55:00,43.9,35.4,29.77,SE,135,2.7,5.8,72,0.00,CLR,SKC,0.00,WeatherDisplay:10.37,2013-03-10 07:55:00,
2013-03-10 04:00:00,43.9,35.4,29.76,ESE,112,3.2,3.2,72,0.00,CLR,SKC,0.00,WeatherDisplay:10.37,2013-03-10 08:00:00,
2013-03-10 04:05:00,44.2,35.8,29.77,SE,135,3.9,4.6,72,0.00,CLR,SKC,0.00,WeatherDisplay:10.37,2013-03-10 08:05:00,
2013-03-10 04:10:00,44.4,35.6,29.76,ESE,112,1.7,3.5,71,0.00,CLR,SKC,0.00,WeatherDisplay:10.37,2013-03-10 08:10:00,
2013-03-10 04:15:00,44.6,35.8,29.76,SE,135,1.6,3.5,71,0.00,CLR,SKC,0.00,WeatherDisplay:10.37,2013-03-10 08:15:00,
2013-03-10 04:20:00,44.8,35.9,29.76,SE,135,2.3,5.8,71,0.00,CLR,SKC,0.00,WeatherDisplay:10.37,2013-03-10 08:20:00,
2013-03-10 04:25:00,44.8,35.9,29.76,SE,135,2.1,4.6,71,0.00,CLR,SKC,0.00,WeatherDisplay:10.37,2013-03-10 08:25:00,
2013-03-10 04:30:00,44.8,35.9,29.76,SE,135,0.5,3.5,71,0.00,CLR,SKC,0.00,WeatherDisplay:10.37,2013-03-10 08:30:00,
2013-03-10 04:35:00,45.0,36.1,29.76,SE,135,1.6,2.3,71,0.00,CLR,SKC,0.00,WeatherDisplay:10.37,2013-03-10 08:35:00,
2013-03-10 04:40:00,45.0,36.5,29.76,SE,135,2.1,3.5,72,0.00,CLR,SKC,0.00,WeatherDisplay:10.37,2013-03-10 08:40:00,
2013-03-10 04:45:00,45.0,36.5,29.76,SE,135,2.3,3.8,72,0.00,CLR,SKC,0.00,WeatherDisplay:10.37,2013-03-10 08:45:00,
2013-03-10 04:50:00,45.0,36.1,29.75,SE,135,1.2,2.3,71,0.00,CLR,SKC,0.00,WeatherDisplay:10.37,2013-03-10 08:50:00,
2013-03-10 04:55:00,45.0,36.1,29.76,SE,135,1.9,3.5,71,0.00,CLR,SKC,0.00,WeatherDisplay:10.37,2013-03-10 08:55:00,
2013-03-10 05:00:00,45.0,36.5,29.76,SE,135,0.0,0.0,72,0.00,CLR,SKC,0.00,WeatherDisplay:10.37,2013-03-10 09:00:00,
2013-03-10 05:05:00,45.0,36.1,29.76,SE,135,0.3,3.5,71,0.00,CLR,SKC,0.00,WeatherDisplay:10.37,2013-03-10 09:05:00,
2013-03-10 05:10:00,45.0,36.5,29.76,ESE,112,0.3,0.0,72,0.00,CLR,SKC,0.00,WeatherDisplay:10.37,2013-03-10 09:10:00,
2013-03-10 05:15:00,44.8,36.3,29.76,SE,135,1.0,2.3,72,0.00,CLR,SKC,0.00,WeatherDisplay:10.37,2013-03-10 09:15:00,
2013-03-10 05:20:00,44.8,36.3,29.76,SE,135,0.1,2.3,72,0.00,CLR,SKC,0.00,WeatherDisplay:10.37,2013-03-10 09:20:00,
2013-03-10 05:25:00,44.4,36.0,29.75,SE,135,0.6,0.0,72,0.00,CLR,SKC,0.00,WeatherDisplay:10.37,2013-03-10 09:25:00,
2013-03-10 05:30:00,44.4,36.3,29.76,SE,135,0.0,2.5,73,0.00,CLR,SKC,0.00,WeatherDisplay:10.37,2013-03-10 09:30:00,
2013-03-10 05:35:00,44.4,36.3,29.75,SE,135,0.6,1.1,73,0.00,CLR,SKC,0.00,WeatherDisplay:10.37,2013-03-10 09:35:00,
2013-03-10 05:40:00,44.4,36.3,29.76,SE,135,0.9,1.1,73,0.00,CLR,SKC,0.00,WeatherDisplay:10.37,2013-03-10 09:40:00,
2013-03-10 05:45:00,44.4,36.3,29.76,SE,135,1.8,3.6,73,0.00,CLR,SKC,0.00,WeatherDisplay:10.37,2013-03-10 09:45:00,
2013-03-10 05:50:00,44.4,36.3,29.76,SE,135,0.4,2.0,73,0.00,CLR,SKC,0.00,WeatherDisplay:10.37,2013-03-10 09:50:00,
2013-03-10 05:55:00,44.4,36.3,29.77,SE,135,0.0,0.0,73,0.00,CLR,SKC,0.00,WeatherDisplay:10.37,2013-03-10 09:55:00,
2013-03-10 06:00:00,44.4,36.3,29.77,SE,135,0.0,1.1,73,0.00,CLR,SKC,0.00,WeatherDisplay:10.37,2013-03-10 10:00:00,
2013-03-10 06:05:00,44.4,36.6,29.77,SE,135,0.0,0.0,74,0.00,CLR,SKC,0.00,WeatherDisplay:10.37,2013-03-10 10:05:00,
2013-03-10 06:10:00,44.4,36.6,29.77,ESE,112,0.0,0.0,74,0.00,CLR,SKC,0.00,WeatherDisplay:10.37,2013-03-10 10:10:00,
2013-03-10 06:15:00,44.4,36.6,29.77,East,90,0.0,2.0,74,0.00,CLR,SKC,0.00,WeatherDisplay:10.37,2013-03-10 10:15:00,
2013-03-10 06:20:00,44.4,36.6,29.77,East,90,0.0,0.0,74,0.00,CLR,SKC,0.00,WeatherDisplay:10.37,2013-03-10 10:20:00,
2013-03-10 06:25:00,44.4,37.0,29.77,East,90,0.0,0.0,75,0.00,CLR,SKC,0.00,WeatherDisplay:10.37,2013-03-10 10:25:00,
2013-03-10 06:30:00,44.2,36.8,29.77,East,90,0.0,0.0,75,0.00,CLR,SKC,0.00,WeatherDisplay:10.37,2013-03-10 10:30:00,
2013-03-10 06:35:00,44.2,36.8,29.77,ESE,112,0.1,1.1,75,0.00,CLR,SKC,0.00,WeatherDisplay:10.37,2013-03-10 10:35:00,
2013-03-10 06:40:00,44.1,37.0,29.77,ESE,112,0.2,0.0,76,0.00,CLR,SKC,0.00,WeatherDisplay:10.37,2013-03-10 10:40:00,
2013-03-10 06:45:00,44.1,37.0,29.77,East,90,0.0,0.0,76,0.00,CLR,SKC,0.00,WeatherDisplay:10.37,2013-03-10 10:45:00,
2013-03-10 06:50:00,43.9,37.1,29.77,East,90,0.0,0.0,77,0.00,CLR,SKC,0.00,WeatherDisplay:10.37,2013-03-10 10:50:00,
2013-03-10 06:55:00,43.7,36.6,29.77,East,90,0.0,0.0,76,0.00,CLR,SKC,0.00,WeatherDisplay:10.37,2013-03-10 10:55:00,
2013-03-10 07:00:00,43.5,36.8,29.77,East,90,1.7,1.7,77,0.00,CLR,SKC,0.00,WeatherDisplay:10.37,2013-03-10 11:00:00,
2013-03-10 07:05:00,43.5,36.8,29.77,East,90,0.4,2.3,77,0.00,CLR,SKC,0.00,WeatherDisplay:10.37,2013-03-10 11:05:00,
2013-03-10 07:10:00,43.5,36.8,29.77,ESE,112,0.4,1.1,77,0.00,CLR,SKC,0.00,WeatherDisplay:10.37,2013-03-10 11:10:00,
2013-03-10 07:15:00,43.3,36.6,29.77,ESE,112,0.0,0.0,77,0.00,CLR,SKC,0.00,WeatherDisplay:10.37,2013-03-10 11:15:00,
2013-03-10 07:20:00,43.3,36.9,29.77,East,90,0.1,1.1,78,0.00,CLR,SKC,0.00,WeatherDisplay:10.37,2013-03-10 11:20:00,
2013-03-10 07:25:00,43.3,36.9,29.77,East,90,0.0,6.9,78,0.00,CLR,SKC,0.00,WeatherDisplay:10.37,2013-03-10 11:25:00,
2013-03-10 07:30:00,43.3,36.9,29.78,East,90,0.0,0.0,78,0.00,CLR,SKC,0.00,WeatherDisplay:10.37,2013-03-10 11:30:00,
2013-03-10 07:35:00,43.3,36.9,29.78,East,90,0.0,0.0,78,0.00,CLR,SKC,0.00,WeatherDisplay:10.37,2013-03-10 11:35:00,
2013-03-10 07:40:00,43.3,36.9,29.78,East,90,0.4,0.0,78,0.00,CLR,SKC,0.00,WeatherDisplay:10.37,2013-03-10 11:40:00,
2013-03-10 07:45:00,43.5,37.1,29.78,East,90,0.0,1.1,78,0.00,CLR,SKC,0.00,WeatherDisplay:10.37,2013-03-10 11:45:00,
2013-03-10 07:50:00,43.3,36.9,29.78,East,90,0.3,1.1,78,0.00,CLR,SKC,0.00,WeatherDisplay:10.37,2013-03-10 11:50:00,
2013-03-10 07:55:00,43.3,36.9,29.78,East,90,0.0,0.0,78,0.00,CLR,SKC,0.00,WeatherDisplay:10.37,2013-03-10 11:55:00,
2013-03-10 08:00:00,43.2,36.8,29.78,East,90,0.0,0.0,78,0.00,CLR,SKC,0.00,WeatherDisplay:10.37,2013-03-10 12:00:00,
2013-03-10 08:05:00,43.2,36.8,29.78,East,90,0.9,2.3,78,0.00,CLR,SKC,0.00,WeatherDisplay:10.37,2013-03-10 12:05:00,
2013-03-10 08:10:00,43.0,36.6,29.79,East,90,0.0,0.0,78,0.00,CLR,SKC,0.00,WeatherDisplay:10.37,2013-03-10 12:10:00,
2013-03-10 08:15:00,43.0,36.6,29.78,East,90,0.2,0.0,78,0.00,CLR,SKC,0.00,WeatherDisplay:10.37,2013-03-10 12:15:00,
2013-03-10 08:20:00,43.0,36.9,29.78,East,90,0.9,0.0,79,0.00,CLR,SKC,0.00,WeatherDisplay:10.37,2013-03-10 12:20:00,
2013-03-10 08:25:00,42.6,36.6,29.78,East,90,0.0,0.0,79,0.00,CLR,SKC,0.00,WeatherDisplay:10.37,2013-03-10 12:25:00,
2013-03-10 08:30:00,42.6,36.6,29.78,East,90,0.0,1.1,79,0.00,CLR,SKC,0.00,WeatherDisplay:10.37,2013-03-10 12:30:00,
2013-03-10 08:35:00,42.4,36.4,29.78,East,90,0.0,1.1,79,0.00,CLR,SKC,0.00,WeatherDisplay:10.37,2013-03-10 12:35:00,
2013-03-10 08:40:00,42.1,36.4,29.78,East,90,0.3,1.1,80,0.00,CLR,SKC,0.00,WeatherDisplay:10.37,2013-03-10 12:40:00,
2013-03-10 08:45:00,42.4,36.7,29.78,East,90,0.3,0.0,80,0.00,CLR,SKC,0.00,WeatherDisplay:10.37,2013-03-10 12:45:00,
2013-03-10 08:50:00,42.4,36.7,29.78,East,90,0.0,0.9,80,0.00,CLR,SKC,0.00,WeatherDisplay:10.37,2013-03-10 12:50:00,
2013-03-10 08:55:00,42.6,36.9,29.78,East,90,0.2,1.1,80,0.00,CLR,SKC,0.00,WeatherDisplay:10.37,2013-03-10 12:55:00,
2013-03-10 09:00:00,43.0,37.2,29.78,ESE,112,0.2,1.3,80,0.00,CLR,SKC,0.00,WeatherDisplay:10.37,2013-03-10 13:00:00,
2013-03-10 09:05:00,43.0,37.2,29.78,ESE,112,0.0,1.1,80,0.00,CLR,SKC,0.00,WeatherDisplay:10.37,2013-03-10 13:05:00,
2013-03-10 09:10:00,43.3,37.6,29.77,ESE,112,0.0,1.1,80,0.00,CLR,SKC,0.00,WeatherDisplay:10.37,2013-03-10 13:10:00,
2013-03-10 09:15:00,43.5,37.4,29.78,ESE,112,0.5,2.3,79,0.00,CLR,SKC,0.00,WeatherDisplay:10.37,2013-03-10 13:15:00,
2013-03-10 09:20:00,43.9,37.8,29.77,ESE,112,1.1,3.5,79,0.00,CLR,SKC,0.00,WeatherDisplay:10.37,2013-03-10 13:20:00,
2013-03-10 09:25:00,44.1,38.0,29.77,ESE,112,0.2,1.3,79,0.00,CLR,SKC,0.00,WeatherDisplay:10.37,2013-03-10 13:25:00,
2013-03-10 09:30:00,44.4,38.3,29.77,SE,135,2.0,3.5,79,0.00,CLR,SKC,0.00,WeatherDisplay:10.37,2013-03-10 13:30:00,
2013-03-10 09:35:00,45.1,39.0,29.77,ESE,112,0.9,2.2,79,0.00,CLR,SKC,0.00,WeatherDisplay:10.37,2013-03-10 13:35:00,
2013-03-10 09:40:00,45.3,38.9,29.77,SE,135,3.3,5.8,78,0.00,CLR,SKC,0.00,WeatherDisplay:10.37,2013-03-10 13:40:00,
2013-03-10 09:45:00,45.7,39.2,29.77,SE,135,1.4,3.5,78,0.00,CLR,SKC,0.00,WeatherDisplay:10.37,2013-03-10 13:45:00,
2013-03-10 09:50:00,46.0,39.6,29.77,SE,135,0.7,2.7,78,0.00,CLR,SKC,0.00,WeatherDisplay:10.37,2013-03-10 13:50:00,
2013-03-10 09:55:00,46.0,39.2,29.77,SE,135,0.0,0.0,77,0.00,CLR,SKC,0.00,WeatherDisplay:10.37,2013-03-10 13:55:00,
2013-03-10 10:00:00,46.0,39.2,29.77,SE,135,0.1,3.5,77,0.00,CLR,SKC,0.00,WeatherDisplay:10.37,2013-03-10 14:00:00,
2013-03-10 10:05:00,46.0,39.2,29.77,SE,135,0.7,2.3,77,0.00,CLR,SKC,0.00,WeatherDisplay:10.37,2013-03-10 14:05:00,
2013-03-10 10:10:00,46.2,39.4,29.76,SE,135,0.7,2.3,77,0.00,CLR,SKC,0.00,WeatherDisplay:10.37,2013-03-10 14:10:00,
2013-03-10 10:15:00,46.4,39.6,29.77,SE,135,0.3,1.1,77,0.00,CLR,SKC,0.00,WeatherDisplay:10.37,2013-03-10 14:15:00,
2013-03-10 10:20:00,46.8,39.9,29.77,SE,135,1.2,2.3,77,0.00,CLR,SKC,0.00,WeatherDisplay:10.37,2013-03-10 14:20:00,
2013-03-10 10:25:00,47.1,40.3,29.77,SE,135,0.7,3.5,77,0.00,CLR,SKC,0.00,WeatherDisplay:10.37,2013-03-10 14:25:00,
2013-03-10 10:30:00,47.5,40.6,29.77,SE,135,0.5,3.5,77,0.00,CLR,SKC,0.00,WeatherDisplay:10.37,2013-03-10 14:30:00,
2013-03-10 10:35:00,48.2,41.3,29.78,ESE,112,0.7,2.5,77,0.00,CLR,SKC,0.00,WeatherDisplay:10.37,2013-03-10 14:35:00,
2013-03-10 10:40:00,48.9,41.7,29.77,SE,135,3.0,4.6,76,0.00,CLR,SKC,0.00,WeatherDisplay:10.37,2013-03-10 14:40:00,
2013-03-10 10:45:00,49.3,42.0,29.77,SE,135,3.9,4.6,76,0.00,CLR,SKC,0.00,WeatherDisplay:10.37,2013-03-10 14:45:00,
2013-03-10 10:50:00,49.8,42.2,29.77,SSE,158,1.3,9.2,75,0.00,CLR,SKC,0.00,WeatherDisplay:10.37,2013-03-10 14:50:00,
2013-03-10 10:55:00,50.5,42.6,29.76,South,180,2.6,4.5,74,0.00,CLR,SKC,0.00,WeatherDisplay:10.37,2013-03-10 14:55:00,
2013-03-10 11:00:00,50.9,42.9,29.76,SE,135,5.3,5.3,74,0.00,CLR,SKC,0.00,WeatherDisplay:10.37,2013-03-10 15:00:00,
2013-03-10 11:05:00,51.4,43.1,29.76,SE,135,1.4,5.8,73,0.00,CLR,SKC,0.00,WeatherDisplay:10.37,2013-03-10 15:05:00,
2013-03-10 11:10:00,51.6,43.2,29.77,SSW,202,4.3,6.9,73,0.00,CLR,SKC,0.00,WeatherDisplay:10.37,2013-03-10 15:10:00,
2013-03-10 11:15:00,52.0,43.2,29.77,SSW,202,4.0,4.6,72,0.00,CLR,SKC,0.00,WeatherDisplay:10.37,2013-03-10 15:15:00,
2013-03-10 11:20:00,52.5,43.8,29.76,SSE,158,3.8,10.4,72,0.00,CLR,SKC,0.00,WeatherDisplay:10.37,2013-03-10 15:20:00,
2013-03-10 11:25:00,53.2,44.1,29.76,SSE,158,0.9,5.8,71,0.00,CLR,SKC,0.00,WeatherDisplay:10.37,2013-03-10 15:25:00,
2013-03-10 11:30:00,54.0,44.8,29.76,SSE,158,3.3,5.8,71,0.00,CLR,SKC,0.00,WeatherDisplay:10.37,2013-03-10 15:30:00,
2013-03-10 11:35:00,54.7,45.1,29.75,SE,135,2.8,3.5,70,0.00,CLR,SKC,0.00,WeatherDisplay:10.37,2013-03-10 15:35:00,
2013-03-10 11:40:00,55.2,45.2,29.77,SE,135,2.9,5.8,69,0.00,CLR,SKC,0.00,WeatherDisplay:10.37,2013-03-10 15:40:00,
2013-03-10 11:45:00,55.6,45.2,29.77,East,90,5.4,5.4,68,0.00,CLR,SKC,0.00,WeatherDisplay:10.37,2013-03-10 15:45:00,
2013-03-10 11:50:00,55.6,44.8,29.76,South,180,4.5,9.4,67,0.00,CLR,SKC,0.00,WeatherDisplay:10.37,2013-03-10 15:50:00,
2013-03-10 11:55:00,55.6,44.8,29.76,East,90,3.1,5.8,67,0.00,CLR,SKC,0.00,WeatherDisplay:10.37,2013-03-10 15:55:00,
2013-03-10 12:00:00,55.6,45.2,29.76,ESE,112,4.2,4.6,68,0.00,CLR,SKC,0.00,WeatherDisplay:10.37,2013-03-10 16:00:00,
2013-03-10 12:05:00,55.6,44.8,29.75,SE,135,4.2,5.8,67,0.00,CLR,SKC,0.00,WeatherDisplay:10.37,2013-03-10 16:05:00,
2013-03-10 12:10:00,55.8,45.0,29.76,SE,135,3.9,6.9,67,0.00,CLR,SKC,0.00,WeatherDisplay:10.37,2013-03-10 16:10:00,
2013-03-10 12:15:00,55.8,45.0,29.75,SSE,158,3.8,7.4,67,0.00,CLR,SKC,0.00,WeatherDisplay:10.37,2013-03-10 16:15:00,
2013-03-10 12:20:00,55.8,45.0,29.74,SSE,158,1.5,8.1,67,0.00,CLR,SKC,0.00,WeatherDisplay:10.37,2013-03-10 16:20:00,
2013-03-10 12:25:00,55.9,45.1,29.74,SE,135,3.9,5.8,67,0.00,CLR,SKC,0.00,WeatherDisplay:10.37,2013-03-10 16:25:00,
2013-03-10 12:30:00,56.8,46.0,29.74,SSE,158,4.6,5.8,67,0.00,CLR,SKC,0.00,WeatherDisplay:10.37,2013-03-10 16:30:00,
2013-03-10 12:35:00,57.0,46.2,29.74,WSW,248,3.5,3.5,67,0.00,CLR,SKC,0.00,WeatherDisplay:10.37,2013-03-10 16:35:00,
2013-03-10 12:40:00,57.6,46.3,29.74,SSE,158,7.1,10.4,66,0.00,CLR,SKC,0.00,WeatherDisplay:10.37,2013-03-10 16:40:00,
2013-03-10 12:45:00,58.3,47.0,29.74,ESE,112,5.2,9.2,66,0.00,CLR,SKC,0.00,WeatherDisplay:10.37,2013-03-10 16:45:00,
2013-03-10 12:50:00,58.8,46.7,29.73,SE,135,8.1,11.5,64,0.00,CLR,SKC,0.00,WeatherDisplay:10.37,2013-03-10 16:50:00,
2013-03-10 12:55:00,58.8,46.7,29.73,SE,135,1.5,6.9,64,0.00,CLR,SKC,0.00,WeatherDisplay:10.37,2013-03-10 16:55:00,
2013-03-10 13:00:00,58.8,46.7,29.72,SE,135,2.8,3.5,64,0.00,CLR,SKC,0.00,WeatherDisplay:10.37,2013-03-10 17:00:00,
2013-03-10 13:05:00,59.2,47.0,29.72,WSW,248,4.1,5.8,64,0.00,CLR,SKC,0.00,WeatherDisplay:10.37,2013-03-10 17:05:00,
2013-03-10 13:10:00,59.7,47.9,29.72,SE,135,3.0,4.6,65,0.00,CLR,SKC,0.00,WeatherDisplay:10.37,2013-03-10 17:10:00,
2013-03-10 13:15:00,60.1,47.9,29.73,SSE,158,5.6,6.9,64,0.00,CLR,SKC,0.00,WeatherDisplay:10.37,2013-03-10 17:15:00,
2013-03-10 13:20:00,60.4,48.2,29.74,WSW,248,5.4,8.1,64,0.00,CLR,SKC,0.00,WeatherDisplay:10.37,2013-03-10 17:20:00,
2013-03-10 13:25:00,61.3,48.6,29.74,SSE,158,2.9,11.5,63,0.00,CLR,SKC,0.00,WeatherDisplay:10.37,2013-03-10 17:25:00,
2013-03-10 13:30:00,61.9,48.7,29.74,SE,135,2.8,10.4,62,0.00,CLR,SKC,0.00,WeatherDisplay:10.37,2013-03-10 17:30:00,
2013-03-10 13:35:00,62.2,49.1,29.75,South,180,2.5,8.9,62,0.00,CLR,SKC,0.00,WeatherDisplay:10.37,2013-03-10 17:35:00,
2013-03-10 13:40:00,62.2,48.6,29.75,ESE,112,3.5,6.9,61,0.00,CLR,SKC,0.00,WeatherDisplay:10.37,2013-03-10 17:40:00,
2013-03-10 13:45:00,62.1,48.4,29.75,SE,135,1.4,5.8,61,0.00,CLR,SKC,0.00,WeatherDisplay:10.37,2013-03-10 17:45:00,
2013-03-10 13:50:00,62.1,48.4,29.74,SE,135,3.0,10.1,61,0.00,CLR,SKC,0.00,WeatherDisplay:10.37,2013-03-10 17:50:00,
2013-03-10 13:55:00,62.2,48.6,29.74,SSE,158,4.5,5.8,61,0.00,CLR,SKC,0.00,WeatherDisplay:10.37,2013-03-10 17:55:00,
2013-03-10 14:00:00,62.4,48.8,29.74,SE,135,2.4,3.5,61,0.00,CLR,SKC,0.00,WeatherDisplay:10.37,2013-03-10 18:00:00,
2013-03-10 14:05:00,62.4,48.8,29.73,East,90,4.4,5.8,61,0.00,CLR,SKC,0.00,WeatherDisplay:10.37,2013-03-10 18:05:00,
2013-03-10 14:10:00,62.4,48.8,29.72,SE,135,6.5,8.1,61,0.00,CLR,SKC,0.00,WeatherDisplay:10.37,2013-03-10 18:10:00,
2013-03-10 14:15:00,62.4,48.8,29.72,SE,135,3.9,11.5,61,0.00,CLR,SKC,0.00,WeatherDisplay:10.37,2013-03-10 18:15:00,
2013-03-10 14:20:00,62.1,48.9,29.72,SE,135,6.2,9.2,62,0.00,CLR,SKC,0.00,WeatherDisplay:10.37,2013-03-10 18:20:00,
2013-03-10 14:25:00,62.2,49.5,29.71,ESE,112,4.9,8.1,63,0.00,CLR,SKC,0.00,WeatherDisplay:10.37,2013-03-10 18:25:00,
2013-03-10 14:30:00,63.1,49.5,29.71,NNW,338,5.8,10.4,61,0.00,CLR,SKC,0.00,WeatherDisplay:10.37,2013-03-10 18:30:00,
2013-03-10 14:35:00,63.3,49.2,29.70,East,90,2.2,4.6,60,0.00,CLR,SKC,0.00,WeatherDisplay:10.37,2013-03-10 18:35:00,
2013-03-10 14:40:00,63.7,49.1,29.69,ESE,112,6.3,6.3,59,0.00,CLR,SKC,0.00,WeatherDisplay:10.37,2013-03-10 18:40:00,
2013-03-10 14:45:00,64.0,49.9,29.69,SSE,158,3.6,6.9,60,0.00,CLR,SKC,0.00,WeatherDisplay:10.37,2013-03-10 18:45:00,
2013-03-10 14:50:00,64.2,50.0,29.68,SSE,158,5.0,10.4,60,0.00,CLR,SKC,0.00,WeatherDisplay:10.37,2013-03-10 18:50:00,
2013-03-10 14:55:00,64.6,49.9,29.68,East,90,4.7,12.7,59,0.00,CLR,SKC,0.00,WeatherDisplay:10.37,2013-03-10 18:55:00,
2013-03-10 15:00:00,64.6,49.5,29.68,SE,135,4.1,10.4,58,0.00,CLR,SKC,0.00,WeatherDisplay:10.37,2013-03-10 19:00:00,
2013-03-10 15:05:00,64.8,49.6,29.67,ESE,112,2.7,11.5,58,0.00,CLR,SKC,0.00,WeatherDisplay:10.37,2013-03-10 19:05:00,
2013-03-10 15:10:00,64.9,50.3,29.66,SE,135,4.1,4.6,59,0.00,CLR,SKC,0.00,WeatherDisplay:10.37,2013-03-10 19:10:00,
2013-03-10 15:15:00,65.1,50.0,29.66,SE,135,6.0,8.1,58,0.00,CLR,SKC,0.00,WeatherDisplay:10.37,2013-03-10 19:15:00,
2013-03-10 15:20:00,65.1,50.0,29.66,SE,135,7.8,12.7,58,0.00,CLR,SKC,0.00,WeatherDisplay:10.37,2013-03-10 19:20:00,
2013-03-10 15:25:00,64.8,49.6,29.65,SE,135,6.5,9.2,58,0.00,CLR,SKC,0.00,WeatherDisplay:10.37,2013-03-10 19:25:00,
2013-03-10 15:30:00,64.6,49.5,29.66,SSE,158,5.2,9.2,58,0.00,CLR,SKC,0.00,WeatherDisplay:10.37,2013-03-10 19:30:00,
2013-03-10 15:35:00,64.8,50.1,29.66,SE,135,5.2,6.7,59,0.00,CLR,SKC,0.00,WeatherDisplay:10.37,2013-03-10 19:35:00,
2013-03-10 15:40:00,65.1,50.0,29.65,South,180,4.1,10.4,58,0.00,CLR,SKC,0.00,WeatherDisplay:10.37,2013-03-10 19:40:00,
2013-03-10 15:45:00,65.7,50.5,29.65,SSW,202,3.7,10.4,58,0.00,CLR,SKC,0.00,WeatherDisplay:10.37,2013-03-10 19:45:00,
2013-03-10 15:51:00,65.5,49.4,29.65,SE,135,3.4,9.2,56,0.00,CLR,SKC,0.00,WeatherDisplay:10.37,2013-03-10 19:51:00,
2013-03-10 15:56:00,65.3,49.7,29.66,South,180,4.5,12.7,57,0.00,CLR,SKC,0.00,WeatherDisplay:10.37,2013-03-10 19:56:00,
2013-03-10 16:01:00,65.1,49.5,29.66,SSE,158,6.5,10.4,57,0.00,CLR,SKC,0.00,WeatherDisplay:10.37,2013-03-10 20:01:00,
2013-03-10 16:06:00,65.1,49.0,29.65,SSE,158,3.8,11.5,56,0.00,CLR,SKC,0.00,WeatherDisplay:10.37,2013-03-10 20:06:00,
2013-03-10 16:11:00,65.1,49.5,29.65,SE,135,3.1,6.9,57,0.00,CLR,SKC,0.00,WeatherDisplay:10.37,2013-03-10 20:11:00,
2013-03-10 16:16:00,65.1,49.5,29.65,SE,135,6.4,11.5,57,0.00,CLR,SKC,0.00,WeatherDisplay:10.37,2013-03-10 20:16:00,
2013-03-10 16:21:00,65.1,49.0,29.66,SW,225,9.5,11.5,56,0.00,CLR,SKC,0.00,WeatherDisplay:10.37,2013-03-10 20:21:00,
2013-03-10 16:26:00,65.1,48.5,29.65,East,90,5.0,10.4,55,0.00,CLR,SKC,0.00,WeatherDisplay:10.37,2013-03-10 20:26:00,
2013-03-10 16:31:00,65.1,48.1,29.66,SE,135,6.2,9.2,54,0.00,CLR,SKC,0.00,WeatherDisplay:10.37,2013-03-10 20:31:00,
2013-03-10 16:36:00,65.1,47.6,29.65,SE,135,2.6,6.9,53,0.00,CLR,SKC,0.00,WeatherDisplay:10.37,2013-03-10 20:36:00,
2013-03-10 16:41:00,65.1,47.6,29.65,ESE,112,5.3,9.2,53,0.00,CLR,SKC,0.00,WeatherDisplay:10.37,2013-03-10 20:41:00,
2013-03-10 16:46:00,64.9,47.4,29.65,ESE,112,6.6,9.2,53,0.00,CLR,SKC,0.00,WeatherDisplay:10.37,2013-03-10 20:46:00,
2013-03-10 16:51:00,64.9,47.4,29.65,SE,135,3.9,10.4,53,0.00,CLR,SKC,0.00,WeatherDisplay:10.37,2013-03-10 20:51:00,
2013-03-10 16:56:00,64.9,47.4,29.64,SE,135,2.0,3.5,53,0.00,CLR,SKC,0.00,WeatherDisplay:10.37,2013-03-10 20:56:00,
2013-03-10 17:01:00,64.8,47.2,29.64,SE,135,2.4,6.9,53,0.00,CLR,SKC,0.00,WeatherDisplay:10.37,2013-03-10 21:01:00,
2013-03-10 17:06:00,64.6,47.6,29.63,SE,135,3.9,4.6,54,0.00,CLR,SKC,0.00,WeatherDisplay:10.37,2013-03-10 21:06:00,
2013-03-10 17:11:00,64.6,47.6,29.63,East,90,4.7,6.9,54,0.00,CLR,SKC,0.00,WeatherDisplay:10.37,2013-03-10 21:11:00,
2013-03-10 17:16:00,64.2,47.2,29.63,SE,135,5.7,5.8,54,0.00,CLR,SKC,0.00,WeatherDisplay:10.37,2013-03-10 21:16:00,
2013-03-10 17:21:00,64.0,47.1,29.62,SE,135,3.0,8.1,54,0.00,CLR,SKC,0.00,WeatherDisplay:10.37,2013-03-10 21:21:00,
2013-03-10 17:26:00,63.7,46.7,29.62,SE,135,4.3,9.6,54,0.00,CLR,SKC,0.00,WeatherDisplay:10.37,2013-03-10 21:26:00,
2013-03-10 17:31:00,63.5,46.6,29.62,ESE,112,4.3,9.2,54,0.00,CLR,SKC,0.00,WeatherDisplay:10.37,2013-03-10 21:31:00,
2013-03-10 17:36:00,63.1,46.2,29.62,SE,135,4.2,4.6,54,0.00,CLR,SKC,0.00,WeatherDisplay:10.37,2013-03-10 21:36:00,
2013-03-10 17:41:00,63.0,46.0,29.62,South,180,3.2,5.8,54,0.00,CLR,SKC,0.00,WeatherDisplay:10.37,2013-03-10 21:41:00,
2013-03-10 17:46:00,62.8,45.4,29.62,SE,135,4.2,8.1,53,0.00,CLR,SKC,0.00,WeatherDisplay:10.37,2013-03-10 21:46:00,
2013-03-10 17:51:00,62.4,45.1,29.62,East,90,6.1,9.2,53,0.00,CLR,SKC,0.00,WeatherDisplay:10.37,2013-03-10 21:51:00,
2013-03-10 17:56:00,62.2,44.9,29.62,SE,135,5.9,8.1,53,0.00,CLR,SKC,0.00,WeatherDisplay:10.37,2013-03-10 21:56:00,
2013-03-10 18:01:00,61.9,45.0,29.62,SE,135,2.2,5.8,54,0.00,CLR,SKC,0.00,WeatherDisplay:10.37,2013-03-10 22:01:00,
2013-03-10 18:06:00,61.7,44.9,29.62,South,180,2.1,4.6,54,0.00,CLR,SKC,0.00,WeatherDisplay:10.37,2013-03-10 22:06:00,
2013-03-10 18:11:00,61.5,44.7,29.62,ESE,112,3.3,6.9,54,0.00,CLR,SKC,0.00,WeatherDisplay:10.37,2013-03-10 22:11:00,
2013-03-10 18:16:00,61.5,45.2,29.62,SE,135,3.7,5.8,55,0.00,CLR,SKC,0.00,WeatherDisplay:10.37,2013-03-10 22:16:00,
2013-03-10 18:21:00,61.3,45.0,29.62,SE,135,1.9,6.9,55,0.00,CLR,SKC,0.00,WeatherDisplay:10.37,2013-03-10 22:21:00,
2013-03-10 18:26:00,61.2,44.9,29.61,SE,135,4.3,9.2,55,0.00,CLR,SKC,0.00,WeatherDisplay:10.37,2013-03-10 22:26:00,
2013-03-10 18:31:00,61.0,45.2,29.61,SE,135,5.3,6.9,56,0.00,CLR,SKC,0.00,WeatherDisplay:10.37,2013-03-10 22:31:00,
2013-03-10 18:36:00,60.6,44.8,29.61,ESE,112,6.0,9.2,56,0.00,CLR,SKC,0.00,WeatherDisplay:10.37,2013-03-10 22:36:00,
2013-03-10 18:41:00,60.6,45.3,29.61,SE,135,5.8,9.2,57,0.00,CLR,SKC,0.00,WeatherDisplay:10.37,2013-03-10 22:41:00,
2013-03-10 18:46:00,60.4,45.1,29.62,SE,135,3.9,6.9,57,0.00,CLR,SKC,0.00,WeatherDisplay:10.37,2013-03-10 22:46:00,
2013-03-10 18:51:00,60.4,45.6,29.61,ESE,112,3.7,4.6,58,0.00,CLR,SKC,0.00,WeatherDisplay:10.37,2013-03-10 22:51:00,
2013-03-10 18:56:00,60.1,45.2,29.61,ESE,112,4.6,6.9,58,0.00,CLR,SKC,0.00,WeatherDisplay:10.37,2013-03-10 22:56:00,
2013-03-10 19:01:00,60.1,45.7,29.61,SE,135,6.7,10.4,59,0.00,CLR,SKC,0.00,WeatherDisplay:10.37,2013-03-10 23:01:00,
2013-03-10 19:06:00,59.7,45.8,29.61,South,180,1.9,4.6,60,0.00,CLR,SKC,0.00,WeatherDisplay:10.37,2013-03-10 23:06:00,
2013-03-10 19:11:00,59.4,46.3,29.62,ESE,112,1.8,4.6,62,0.00,CLR,SKC,0.00,WeatherDisplay:10.37,2013-03-10 23:11:00,
2013-03-10 19:16:00,58.8,46.7,29.61,SE,135,0.3,2.3,64,0.00,CLR,SKC,0.00,WeatherDisplay:10.37,2013-03-10 23:16:00,
2013-03-10 19:21:00,58.3,46.6,29.61,ESE,112,3.0,6.9,65,0.00,CLR,SKC,0.00,WeatherDisplay:10.37,2013-03-10 23:21:00,
2013-03-10 19:26:00,57.7,46.5,29.61,ESE,112,2.3,4.6,66,0.00,CLR,SKC,0.00,WeatherDisplay:10.37,2013-03-10 23:26:00,
2013-03-10 19:31:00,57.4,46.1,29.61,ESE,112,0.0,6.9,66,0.00,CLR,SKC,0.00,WeatherDisplay:10.37,2013-03-10 23:31:00,
2013-03-10 19:36:00,57.2,45.9,29.61,SE,135,0.9,4.6,66,0.00,CLR,SKC,0.00,WeatherDisplay:10.37,2013-03-10 23:36:00,
2013-03-10 19:41:00,57.0,45.8,29.62,SE,135,2.7,2.9,66,0.00,CLR,SKC,0.00,WeatherDisplay:10.37,2013-03-10 23:41:00,
2013-03-10 19:46:00,57.0,45.8,29.61,SE,135,0.8,0.0,66,0.00,CLR,SKC,0.00,WeatherDisplay:10.37,2013-03-10 23:46:00,
2013-03-10 19:51:00,57.0,45.8,29.61,SE,135,0.8,0.0,66,0.00,CLR,SKC,0.00,WeatherDisplay:10.37,2013-03-10 23:51:00,
2013-03-10 19:56:00,57.0,45.8,29.61,SE,135,0.8,0.0,66,0.00,CLR,SKC,0.00,WeatherDisplay:10.37,2013-03-10 23:56:00,
2013-03-10 20:01:00,57.0,45.8,29.61,SE,135,0.8,0.0,66,0.00,CLR,SKC,0.00,WeatherDisplay:10.37,2013-03-11 00:01:00,
2013-03-10 20:06:00,56.5,45.7,29.61,SSW,202,0.0,0.0,67,0.00,CLR,SKC,0.00,WeatherDisplay:10.37,2013-03-11 00:06:00,
2013-03-10 20:11:00,56.5,45.7,29.61,SSW,202,0.0,0.0,67,0.00,CLR,SKC,0.00,WeatherDisplay:10.37,2013-03-11 00:11:00,
2013-03-10 20:16:00,56.5,45.7,29.61,SSW,202,0.0,0.0,67,0.00,CLR,SKC,0.00,WeatherDisplay:10.37,2013-03-11 00:16:00,
2013-03-10 20:21:00,56.5,45.7,29.61,SSW,202,0.0,0.0,67,0.00,CLR,SKC,0.00,WeatherDisplay:10.37,2013-03-11 00:21:00,
2013-03-10 20:26:00,56.5,45.7,29.61,SSW,202,0.0,0.0,67,0.00,CLR,SKC,0.00,WeatherDisplay:10.37,2013-03-11 00:26:00,
2013-03-10 20:31:00,56.5,45.7,29.61,SSW,202,0.0,0.0,67,0.00,CLR,SKC,0.00,WeatherDisplay:10.37,2013-03-11 00:31:00,
2013-03-10 20:36:00,56.5,45.7,29.61,SSW,202,0.0,0.0,67,0.00,CLR,SKC,0.00,WeatherDisplay:10.37,2013-03-11 00:36:00,
2013-03-10 20:41:00,55.6,45.2,29.63,SE,135,5.2,9.2,68,0.00,CLR,SKC,0.00,WeatherDisplay:10.37,2013-03-11 00:41:00,
2013-03-10 20:46:00,55.4,45.0,29.63,SE,135,4.1,5.8,68,0.02,RA,SKC,0.02,WeatherDisplay:10.37,2013-03-11 00:46:00,
2013-03-10 20:51:00,55.6,44.8,29.63,ENE,68,5.6,5.6,67,0.02,,SKC,0.02,WeatherDisplay:10.37,2013-03-11 00:51:00,
2013-03-10 20:57:00,55.6,44.8,29.63,ENE,68,5.6,5.6,67,0.02,CLR,SKC,0.02,WeatherDisplay:10.37,2013-03-11 00:57:00,
2013-03-10 21:02:00,55.6,44.8,29.63,ENE,68,5.6,5.6,67,0.02,CLR,SKC,0.02,WeatherDisplay:10.37,2013-03-11 01:02:00,
2013-03-10 21:07:00,55.6,44.8,29.63,ENE,68,5.6,5.6,67,0.02,CLR,SKC,0.02,WeatherDisplay:10.37,2013-03-11 01:07:00,
2013-03-10 21:12:00,55.6,44.8,29.63,ENE,68,5.6,5.6,67,0.02,CLR,SKC,0.02,WeatherDisplay:10.37,2013-03-11 01:12:00,
2013-03-10 21:17:00,55.6,44.8,29.63,ENE,68,5.6,5.6,67,0.02,CLR,SKC,0.02,WeatherDisplay:10.37,2013-03-11 01:17:00,
2013-03-10 21:22:00,55.6,44.8,29.63,ENE,68,5.6,5.6,67,0.02,CLR,SKC,0.02,WeatherDisplay:10.37,2013-03-11 01:22:00,
2013-03-10 21:27:00,55.6,44.8,29.63,ENE,68,5.6,5.6,67,0.02,CLR,SKC,0.02,WeatherDisplay:10.37,2013-03-11 01:27:00,
2013-03-10 21:32:00,55.6,44.8,29.63,ENE,68,5.6,5.6,67,0.02,CLR,SKC,0.02,WeatherDisplay:10.37,2013-03-11 01:32:00,
2013-03-10 21:37:00,55.6,44.8,29.63,ENE,68,5.6,5.6,67,0.02,CLR,SKC,0.02,WeatherDisplay:10.37,2013-03-11 01:37:00,
2013-03-10 21:42:00,55.6,44.8,29.63,ENE,68,5.6,5.6,67,0.00,CLR,SKC,0.02,WeatherDisplay:10.37,2013-03-11 01:42:00,
2013-03-10 21:47:00,55.6,44.8,29.63,ENE,68,5.6,5.6,67,0.00,CLR,SKC,0.02,WeatherDisplay:10.37,2013-03-11 01:47:00,
2013-03-10 21:52:00,55.6,44.8,29.63,ENE,68,5.6,5.6,67,0.00,CLR,SKC,0.02,WeatherDisplay:10.37,2013-03-11 01:52:00,
2013-03-10 21:57:00,55.6,44.8,29.63,ENE,68,5.6,5.6,67,0.00,CLR,SKC,0.02,WeatherDisplay:10.37,2013-03-11 01:57:00,
2013-03-10 22:02:00,55.6,44.8,29.63,ENE,68,5.6,5.6,67,0.00,CLR,SKC,0.02,WeatherDisplay:10.37,2013-03-11 02:02:00,
2013-03-10 22:07:00,55.6,44.8,29.63,ENE,68,5.6,5.6,67,0.00,CLR,SKC,0.02,WeatherDisplay:10.37,2013-03-11 02:07:00,
2013-03-10 22:12:00,55.6,44.8,29.63,ENE,68,5.6,5.6,67,0.00,CLR,SKC,0.02,WeatherDisplay:10.37,2013-03-11 02:12:00,
2013-03-10 22:17:00,55.6,45.2,29.61,SSW,202,1.3,1.3,68,0.00,CLR,SKC,0.02,WeatherDisplay:10.37,2013-03-11 02:17:00,
2013-03-10 22:22:00,55.6,45.6,29.61,West,270,0.7,2.3,69,0.00,CLR,SKC,0.02,WeatherDisplay:10.37,2013-03-11 02:22:00,
2013-03-10 22:27:00,55.4,45.4,29.61,WSW,248,2.1,4.0,69,0.00,CLR,SKC,0.02,WeatherDisplay:10.37,2013-03-11 02:27:00,
2013-03-10 22:32:00,55.4,45.4,29.61,WSW,248,1.3,3.5,69,0.00,CLR,SKC,0.02,WeatherDisplay:10.37,2013-03-11 02:32:00,
2013-03-10 22:37:00,55.4,45.4,29.61,SSW,202,2.6,9.2,69,0.00,CLR,SKC,0.02,WeatherDisplay:10.37,2013-03-11 02:37:00,
2013-03-10 22:42:00,55.4,45.4,29.61,SSW,202,3.8,4.7,69,0.00,CLR,SKC,0.02,WeatherDisplay:10.37,2013-03-11 02:42:00,
2013-03-10 22:48:00,55.2,45.2,29.61,WSW,248,2.1,5.8,69,0.00,CLR,SKC,0.02,WeatherDisplay:10.37,2013-03-11 02:48:00,
2013-03-10 22:53:00,55.2,45.2,29.61,SSW,202,2.0,3.5,69,0.00,CLR,SKC,0.02,WeatherDisplay:10.37,2013-03-11 02:53:00,
2013-03-10 22:58:00,55.2,45.2,29.61,SW,225,1.2,4.6,69,0.00,CLR,SKC,0.02,WeatherDisplay:10.37,2013-03-11 02:58:00,
2013-03-10 23:03:00,55.2,45.2,29.61,SW,225,1.2,4.6,69,0.00,CLR,SKC,0.02,WeatherDisplay:10.37,2013-03-11 03:03:00,
2013-03-10 23:08:00,55.2,45.2,29.61,SW,225,1.2,4.6,69,0.00,CLR,SKC,0.02,WeatherDisplay:10.37,2013-03-11 03:08:00,
2013-03-10 23:13:00,55.2,45.2,29.61,SW,225,1.2,4.6,69,0.00,CLR,SKC,0.02,WeatherDisplay:10.37,2013-03-11 03:13:00,
2013-03-10 23:18:00,55.2,45.2,29.61,SW,225,1.2,4.6,69,0.00,CLR,SKC,0.02,WeatherDisplay:10.37,2013-03-11 03:18:00,
2013-03-10 23:23:00,55.2,45.2,29.61,SW,225,1.2,4.6,69,0.00,CLR,SKC,0.02,WeatherDisplay:10.37,2013-03-11 03:23:00,
2013-03-10 23:28:00,55.2,45.2,29.61,SW,225,1.2,4.6,69,0.00,CLR,SKC,0.02,WeatherDisplay:10.37,2013-03-11 03:28:00,
2013-03-10 23:33:00,55.2,45.2,29.61,SW,225,1.2,4.6,69,0.00,CLR,SKC,0.02,WeatherDisplay:10.37,2013-03-11 03:33:00,
2013-03-10 23:38:00,55.2,45.2,29.61,SW,225,1.2,4.6,69,0.00,CLR,SKC,0.02,WeatherDisplay:10.37,2013-03-11 03:38:00,
2013-03-10 23:43:00,55.2,45.2,29.61,SW,225,1.2,4.6,69,0.00,CLR,SKC,0.02,WeatherDisplay:10.37,2013-03-11 03:43:00,
2013-03-10 23:48:00,55.2,45.2,29.61,SW,225,1.2,4.6,69,0.00,CLR,SKC,0.02,WeatherDisplay:10.37,2013-03-11 03:48:00,
2013-03-10 23:53:00,55.2,45.2,29.61,SW,225,1.2,4.6,69,0.00,CLR,SKC,0.02,WeatherDisplay:10.37,2013-03-11 03:53:00,
2013-03-10 23:58:00,55.2,45.2,29.61,SW,225,1.2,4.6,69,0.00,CLR,SKC,0.02,WeatherDisplay:10.37,2013-03-11 03:58:00,